Weather History for KFPR - October, 2011

Change the Weather History Date:

Saturday, October 29, 2011

  Actual Average (KVRB) Record (KVRB)
Temperature  
Mean Temperature 75 °F 74 °F  
Max Temperature 80 °F 82 °F 92 °F (1980)
Min Temperature 71 °F 66 °F 46 °F (2008)
Degree Days  
Heating Degree Days 0 0  
Month to date heating degree days 0  
Since 1 July heating degree days 0  
Cooling Degree Days 10 9  
Month to date cooling degree days 343  
Year to date cooling degree days 3110  
Growing Degree Days 25 (Base 50)    
Moisture  
Dew Point 71 °F    
Average Humidity 89    
Maximum Humidity 100    
Minimum Humidity 75    
Precipitation  
Precipitation 0.77 in 0.11 in 2.19 in (1969)
Month to date precipitation 4.69  
Year to date precipitation 46.18  
Sea Level Pressure  
Sea Level Pressure 29.86 in    
Wind  
Wind Speed 9 mph (NE)    
Max Wind Speed 14 mph    
Max Gust Speed 24 mph    
Visibility 8 miles    
Events Rain    
T = Trace of Precipitation, MM = Missing Value Source: NWS Daily Summary

Daily Weather History Graph

Daily Weather History Graph

Search for Another Location

Airport or City:

Trip Planner

Search our weather history database for the weather conditions in past years. The results will help you decide how hot, cold, wet, or windy it might be!

Date:

Astronomy

Oct. 29, 2011 Rise Set
Actual Time 7:29 AM EDT 6:40 PM EDT
Civil Twilight 7:05 AM EDT 7:04 PM EDT
Nautical Twilight 6:38 AM EDT 7:31 PM EDT
Astronomical Twilight 6:11 AM EDT 7:58 PM EDT
Moon 10:33 AM EDT (10/29) 9:18 PM EDT (10/29)
Length of Visible Light 11h 58m
Length of Day
11h 10m
Waxing Crescent, 11% of the Moon is Illuminated
Oct 29
Waxing Crescent
Nov 2
First Quarter
Nov 10
Full
Nov 18
Last Quarter
Nov 25
New

Hourly Weather History & Observations

Time (EDT) Temp. Dew Point Humidity Pressure Visibility Wind Dir Wind Speed Gust Speed Precip Events Conditions
12:53 AM 75.0 °F 73.9 °F 96% 29.89 in 5.0 mi East 6.9 mph - 0.12 in Rain Rain
1:06 AM 75.2 °F 73.4 °F 94% 29.89 in 5.0 mi ESE 11.5 mph 17.3 mph 0.05 in Rain Rain
1:16 AM 73.4 °F 71.6 °F 94% 29.89 in 5.0 mi SSE 9.2 mph - 0.08 in Rain Rain
1:37 AM 73.4 °F 71.6 °F 94% 29.89 in 9.0 mi SSE 10.4 mph - 0.11 in Rain Light Rain
1:46 AM 73.4 °F 71.6 °F 94% 29.88 in 10.0 mi SSE 5.8 mph - 0.11 in Rain Light Rain
1:53 AM 73.0 °F 71.1 °F 93% 29.88 in 9.0 mi SE 6.9 mph - 0.12 in Rain Light Rain
2:48 AM 73.4 °F 71.6 °F 94% 29.86 in 5.0 mi ESE 3.5 mph - 0.07 in Rain Rain
2:53 AM 73.0 °F 72.0 °F 96% 29.86 in 5.0 mi SE 4.6 mph - 0.08 in Rain Rain
3:53 AM 73.0 °F 72.0 °F 96% 29.83 in 9.0 mi ESE 6.9 mph - 0.07 in Rain Light Rain
4:53 AM 73.0 °F 72.0 °F 96% 29.82 in 8.0 mi ESE 8.1 mph - 0.07 in Rain Light Rain
5:30 AM 73.4 °F 73.4 °F 100% 29.80 in 10.0 mi ESE 10.4 mph - 0.01 in   Mostly Cloudy
5:36 AM 73.4 °F 73.4 °F 100% 29.80 in 10.0 mi ESE 9.2 mph - 0.01 in   Scattered Clouds
5:44 AM 73.4 °F 73.4 °F 100% 29.80 in 10.0 mi ESE 9.2 mph - 0.01 in   Scattered Clouds
5:53 AM 73.4 °F 73.4 °F 100% 29.80 in 10.0 mi SE 9.2 mph - N/A   Partly Cloudy
6:53 AM 73.9 °F 72.0 °F 93% 29.81 in 10.0 mi SE 8.1 mph - N/A   Mostly Cloudy
7:53 AM 75.0 °F 73.0 °F 94% 29.82 in 10.0 mi SSE 5.8 mph - 0.00 in Rain Light Rain
8:35 AM 75.2 °F 73.4 °F 94% 29.81 in 4.0 mi SSE 5.8 mph - 0.06 in Rain Light Rain
8:53 AM 75.0 °F 73.9 °F 96% 29.82 in 10.0 mi SSE 6.9 mph - 0.06 in Rain Light Rain
9:53 AM 75.9 °F 73.9 °F 94% 29.83 in 10.0 mi South 6.9 mph - 0.00 in   Overcast
10:02 AM 75.2 °F 73.4 °F 94% 29.83 in 10.0 mi South 6.9 mph - N/A   Overcast
10:43 AM 78.8 °F 75.2 °F 89% 29.83 in 10.0 mi South 8.1 mph - N/A   Mostly Cloudy
10:53 AM 79.0 °F 75.0 °F 88% 29.83 in 10.0 mi SSW 8.1 mph - N/A   Mostly Cloudy
11:00 AM 78.8 °F 75.2 °F 89% 29.83 in 10.0 mi South 9.2 mph - N/A   Mostly Cloudy
11:23 AM 78.8 °F 75.2 °F 89% 29.84 in 10.0 mi SSW 9.2 mph - N/A   Mostly Cloudy
11:53 AM 79.0 °F 75.0 °F 88% 29.83 in 10.0 mi SW 10.4 mph - N/A   Overcast
12:16 PM 75.2 °F 73.4 °F 94% 29.84 in 1.8 mi West 13.8 mph 24.2 mph 0.04 in Rain Heavy Rain
12:53 PM 75.9 °F 75.0 °F 97% 29.83 in 5.0 mi West 10.4 mph - 0.25 in Rain Light Rain
1:00 PM 75.2 °F 73.4 °F 94% 29.83 in 5.0 mi WNW 13.8 mph 19.6 mph 0.00 in Rain Light Rain
1:14 PM 75.2 °F 73.4 °F 94% 29.83 in 5.0 mi NW 9.2 mph - 0.00 in   Overcast
1:53 PM 75.9 °F 73.0 °F 91% 29.83 in 5.0 mi North 11.5 mph 18.4 mph 0.00 in Rain Light Rain
2:04 PM 73.4 °F 71.6 °F 94% 29.83 in 2.0 mi North 10.4 mph - 0.00 in Rain Light Rain
2:15 PM 73.4 °F 71.6 °F 94% 29.83 in 4.0 mi NNW 8.1 mph - 0.00 in Rain Light Rain
2:53 PM 75.0 °F 72.0 °F 90% 29.83 in 10.0 mi NNE 5.8 mph - 0.00 in   Overcast
3:00 PM 75.2 °F 71.6 °F 89% 29.83 in 10.0 mi North 5.8 mph - N/A   Overcast
3:14 PM 75.2 °F 71.6 °F 89% 29.83 in 10.0 mi North 9.2 mph - N/A   Overcast
3:53 PM 75.9 °F 70.0 °F 82% 29.83 in 10.0 mi North 8.1 mph - N/A   Overcast
4:50 PM 75.2 °F 69.8 °F 83% 29.84 in 10.0 mi North 10.4 mph 19.6 mph N/A   Overcast
4:53 PM 75.0 °F 69.1 °F 82% 29.84 in 10.0 mi North 10.4 mph 18.4 mph N/A   Overcast
5:04 PM 75.2 °F 69.8 °F 83% 29.85 in 10.0 mi North 10.4 mph 21.9 mph N/A   Overcast
5:53 PM 73.9 °F 68.0 °F 82% 29.87 in 10.0 mi North 11.5 mph 20.7 mph N/A   Mostly Cloudy
6:53 PM 73.4 °F 68.0 °F 83% 29.88 in 7.0 mi North 11.5 mph 18.4 mph N/A   Overcast
7:53 PM 73.0 °F 66.9 °F 81% 29.91 in 8.0 mi North 8.1 mph - N/A   Mostly Cloudy
8:53 PM 72.0 °F 66.9 °F 84% 29.93 in 8.0 mi North 6.9 mph 17.3 mph N/A   Mostly Cloudy
9:06 PM 71.6 °F 66.2 °F 83% 29.93 in 8.0 mi North 8.1 mph 16.1 mph N/A   Mostly Cloudy
9:49 PM 73.4 °F 66.2 °F 78% 29.95 in 10.0 mi North 11.5 mph 19.6 mph N/A   Overcast
9:53 PM 73.0 °F 66.0 °F 79% 29.95 in 10.0 mi North 11.5 mph 17.3 mph N/A   Overcast
10:03 PM 73.4 °F 66.2 °F 78% 29.95 in 10.0 mi North 9.2 mph 18.4 mph N/A   Overcast
10:28 PM 71.6 °F 66.2 °F 83% 29.96 in 9.0 mi North 8.1 mph 17.3 mph N/A   Overcast
10:38 PM 71.6 °F 64.4 °F 78% 29.96 in 10.0 mi North 13.8 mph 20.7 mph N/A   Overcast
10:53 PM 72.0 °F 64.9 °F 78% 29.97 in 10.0 mi North 13.8 mph 20.7 mph N/A   Overcast
11:06 PM 71.6 °F 64.4 °F 78% 29.97 in 10.0 mi North 12.7 mph 20.7 mph N/A   Overcast
11:53 PM 71.1 °F 63.0 °F 75% 29.98 in 10.0 mi North 11.5 mph 23.0 mph N/A   Overcast